Regional Weather Roundup
Issued by NWS Sterling, VA

Home | Current Version | Previous Version | Text Only | Print | Product List | Glossary Off
Versions: 1 2 3 4 5 6 7 8 9 10 11 12 13 14 15 16 17 18 19 20 21 22 23 24 25 26 27 28 29 30 31 32 33 34 35 36 37 38 39 40 41 42 43 44 45 46 47 48 49 50

000
ASUS41 KLWX 290510
RWRLWX

REGIONAL WEATHER ROUNDUP
NATIONAL WEATHER SERVICE BALTIMORE MD/WASHINGTON DC
1200 AM EST THU JAN 29 2015

Note: "FAIR" indicates few or no clouds below 12,000 feet
with no significant weather and/or obstructions to visibility.
 TC=TEMPERATURE CELSIUS

 * =Non NWS site. Station does not report precipitation (e.g. rain,
    snow, etc.), thunder, or fog.

DCZ001-MDZ009-015-VAZ040>042-051-053>054-290600-
WASHINGTON METRO

CITY           SKY/WX    TMP DP  RH WIND       PRES   REMARKS
WASHINGTON NAT CLEAR     30   6  36 NW6       30.36S
DULLES         CLEAR     21   7  54 NW3       30.34F
FT BELVOIR     CLEAR     25   8  48 NW5       30.35F
QUANTICO       CLEAR     25  15  66 NW6       30.37S
COLLEGE PARK*  CLEAR     28  10  47 CALM      30.34S
LEESBURG*      CLEAR     27  10  50 N5        30.35S
MANASSAS*      CLEAR     16  16 100 CALM      30.35F
GAITHERSBURG*  PTCLDY    19   5  53 CALM      30.36S

$$

MDZ006>007-011-014-290600-
BALTIMORE METRO

CITY           SKY/WX    TMP DP  RH WIND       PRES   REMARKS
BWI AIRPORT    CLEAR     24   7  48 W3        30.33R
MD SCIENCE CTR   N/A     28   5  37 MISG      30.33S
MARTIN STATE   CLEAR     27  12  54 W5        30.35R
ANNAPOLIS      CLEAR     29   8  41 NW7       30.33S
FORT MEADE*    CLEAR     21  12  68 CALM      30.36R

$$

MDZ012-015-019>023-290600-
MARYLAND EASTERN SHORE

CITY           SKY/WX    TMP DP  RH WIND       PRES   REMARKS
OCEAN CITY     CLEAR     26  10  50 NW7       30.30R
SALISBURY      CLEAR     27  12  53 NW5       30.31R
BAY BRIDGE AP*   N/A     30  10  43 NW10      30.33S WCI  21
CAMBRIDGE*     FAIR      32  12  43 NW6       30.32S
EASTON*        FAIR      27  16  64 NW3       30.36S

$$

MDZ017>025-290600-
SOUTHERN MARYLAND

CITY           SKY/WX    TMP DP  RH WIND       PRES   REMARKS
PATUXENT RIVER CLEAR     29   9  43 NW10      30.33S WCI  20
ST INIGOES     CLEAR     27   9  46 W5        30.33S
LEONARDTOWN*   CLEAR     28   5  37 W5        30.34F

$$

MDZ003>005-290600-
NORTH CENTRAL MARYLAND

CITY           SKY/WX    TMP DP  RH WIND       PRES   REMARKS
FREDERICK*     PTCLDY    21  10  63 S3        30.37S
HAGERSTOWN APT PTCLDY    17   6  62 SE3       30.32S
WESTMINSTER*   PTCLDY    21   3  45 NW3       30.30R

$$

MDZ501>502-290600-
WESTERN MARYLAND

CITY           SKY/WX    TMP DP  RH WIND       PRES   REMARKS
OAKLAND*       PTCLDY    18  -4  38 SE6       30.16F
CUMBERLAND*    PTCLDY    19  10  68 N3        30.36F

$$

VAZ025>031-290600-
SHENANDOAH VALLEY

CITY           SKY/WX    TMP DP  RH WIND       PRES   REMARKS
WINCHESTER*    PTCLDY    18   9  68 CALM      30.33S
FRONT ROYAL*   FAIR      19  14  79 S3        30.32S
LURAY*         FAIR      21  18  86 CALM      30.31F
NEW MARKET*    FAIR      15  12  85 CALM      30.31F
STAUNTON*      PTCLDY    18  12  79 CALM      30.32S
WAYNESBORO*    FAIR      20  10  62 SW5       30.30R

$$

WVZ021-048>050-054>055-290600-
EASTERN WEST VIRGINIA PANHANDLE

CITY           SKY/WX    TMP DP  RH WIND       PRES   REMARKS
MARTINSBURG    PTCLDY    16   5  62 CALM      30.33F
PETERSBURG*    PTCLDY    14  10  85 CALM      30.33F

$$

VAZ036>039-050-290600-
CENTRAL FOOTHILLS

CITY           SKY/WX    TMP DP  RH WIND       PRES   REMARKS
CHARLOTTESVILL CLEAR     23   7  50 CALM      30.32S
CULPEPER*        N/A     19  12  73 CALM      30.34S
ORANGE*        CLEAR     21  16  79 CALM      30.35S
GORDONSVILLE*  FAIR      18  14  84 CALM      30.33S
WARRENTON*     FAIR      18  17  96 CALM      30.33F

$$

VAZ055>057-290600-
NORTH AND CENTRAL PIEDMONT

CITY           SKY/WX    TMP DP  RH WIND       PRES   REMARKS
FREDERICKSBRG* CLEAR     25  13  60 N3        30.35S
STAFFORD*      CLEAR     23   9  54 CALM      30.38F

$$

NCZ024-NYZ072-PAZ021-071-VAZ022-071-290600-
OTHER REGIONAL OBSERVATIONS

CITY           SKY/WX    TMP DP  RH WIND       PRES   REMARKS
NEW YORK CITY  CLEAR     25   1  35 CALM      30.29R
PHILADELPHIA   CLEAR     28   2  32 VRB6      30.31S
PITTSBURGH     CLOUDY    16  11  80 S3        30.25F
ROANOKE        CLEAR     25  13  60 CALM      30.33R
RICHMOND       CLEAR     27  10  49 N3        30.34F
RALEIGH        PTCLDY    26  14  60 CALM      30.33S

$$

ANZ530>537-290600-
MARINE OBSERVATIONS

STATION/POSITION TIME  TEMP    WIND        PRES
                       AIR SEA DIR/SP/G
                 (UTC) (F)     (DEG/KT/KT) (MB)
THOMAS PT LIGHT  0500   29 36  310/ 12/ 13 1028.0F
BALT KEY BRIDGE  0500   30     280/  9/ 10 1027.1R
COVE POINT       0500   31     350/ 16/ 18 1026.8S
LEWISETTA        0500   33 36  340/  9/ 13 1027.0S
SOLOMONS ISLAND  0500      37                N/A
PINEY POINT      0500          350/ 13/ 15   N/A

$$



USA.gov is the U.S. government's official web portal to all federal, state and local government web resources and services.